Voltar ao catálogo

COSMOS 2251 DEB

AtivoLEO
NORAD 37996·DEBRIS·🇷🇺 Russia

Lançado Jun 16, 1993 de Plesetsk Cosmodrome

Loading…

Próximas Passagens (próximas 24 horas)

TLE

ObsoletoSource: Space-Track

Época: Aug 29, 2026, 07:13 UTC

1 37996U 93036BQX 26241.30137163  .00006680  00000-0  27903-2 0  9997
2 37996  74.0618 104.8895 0220706 153.3506 207.9186 14.14023779598000

Acompanhe COSMOS 2251 DEB em tempo real com AllMySat

Download on the App Store